Tracking 19800 objects as of 23-Jul-2019
HD Live streaming from Space Station
objects crossing your sky now

FENGYUN 1C DEB

Track FENGYUN 1C DEB now!
10-day predictions


NORAD ID: 31764
Int'l Code: 1999-025CFP
Perigee: 771.2 km
Apogee: 1,147.7 km
Inclination: 98.2 °
Period: 104.1 minutes
Semi major axis: 7330 km
RCS: 0.008 m2 (small)
Launch date: May 10, 1999
Source: People's Republic of China (PRC)
Launch site: Taiyaun Space Center, China (TSC)

Note: This is SATELLITE DEBRIS
aabbcc
Your satellite tracking list
Your tracking list is empty




NASA's NSSDC Master Catalog

Two Line Element Set (TLE):
1 31764U 99025CFP 12296.47618688 +.00001733 +00000-0 +12488-2 0  9993
2 31764 098.1533 024.1924 0256818 055.6463 309.3154 13.83258966274811
Source of the keplerian elements: AFSPC